ARIANE 3 DEB

基本信息
目录编号:
20488
目录名称:
ARIANE 3 DEB
国际标识:
1988-063F
轨道中心:
EARTH
物体状态:
在轨
发射日期:
1988-07-21 UTC
轨道信息
数据来源: 国际轨道数据
星历时间: 2026-07-13T12:20:49+0800
半长轴: 14509.357km
偏心率: 0.4790247
轨道倾角: 7.169°
近地点辐角: 70.046°
升交点赤经: 162.088°
平近点角: 334.277°
近地点: 1180.879km
远地点: 15081.561km
周期: 289.889分钟
每日圈数: 4.967416
详细信息
发射场:
FRGUI
轨道高度:
LEO
数据来源:
AOE Integration Group
参考系:
TEME
时间系统:
UTC
历元类型:
SGP4
2D轨道图
3D轨道图
轨道高度分析图
轨道倾角分析图
轨道综合分析图
查看轨道综合分析图